Location: Melara
(45.0500°N, 11.1833°E)
Time: 01:40:32
(UTC+00:00)

BREEZE-M DEB (TANK) - Pass Details

Date: 26 May 2022
Orbit: 299 x 13684 km, 49.6° (Epoch: 25 June)

Event Time Altitude Azimuth Distance (km) Brightness Sun altitude
Exits shadow 02:46:15 - 238° (WSW) 2,574 5.6 -7.9°
Reaches altitude 10° 02:46:30 10° 238° (WSW) 2,444 5.4 -7.9°
Maximum altitude 02:51:01 70° 154° (SSE) 452 2.3 -7.2°
Drops below altitude 10° 02:53:16 10° 70° (ENE) 1,237 6.0 -6.9°
Sets 02:54:45 0° 67° (ENE) 1,998 7.5 -6.7°
